USA 164 (MILSTAR-2 3)

Last updated on Sun Jun 21 2026 00:03:03 GMT+0000 (Coordinated Universal Time)

1 27168U 02001A 26171.25318352 .00000087 00000+0 00000+0 0 9996 2 27168 11.1840 21.8926 0099678 8.2747 348.4440 1.00267381 32983
UTC large
Height (km)
Speed (km/s)
/
Latitude / Longitude
Inclination (degrees)
Orbital Period (minutes)
Azimuth
Elevation
Range (km)
Doppler Factor

Next 0 passes for location: London (51.5072 / 0.1276)

No passes found over London.
USA 164 (MILSTAR-2 3)